sat.trackr.live / text

‹ back to catalog

STARLINK-37548

NORAD 69027 · 2026-101C

PAYLOAD ACTIVE UNKNOWN

§ Identity

Operator
Country
US
Launch date
2026-05-06
Launch site
AFWTR
Launch vehicle
Mass (kg)
RCS (m²)

Purposes: comms

External: N2YO · Heavens-Above · Gunter

§ Orbital elements

Epoch: 2026-05-25T03:37:10.140384Z

Period
91.42 min
Inclination
97.2847°
Eccentricity
0.0001256
Mean motion
15.75225880 rev/d
Perigee alt
343.1 km
Apogee alt
344.8 km
Semi-major
6,722.1 km
B*
9.0747e-4
RAAN
359.8943°
Arg perigee
83.9658°
Mean anomaly
276.1751°
Rev number
301

§ Raw data

STARLINK-375481 69027U 26101C   26145.15081181  .00137640  00000+0  90747-3 0  99972 69027  97.2847 359.8943 0001256  83.9658 276.1751 15.75225880  3013

JSON: /api/v1/satellites/69027 · /tle

For live sub-satellite position, see the globe view (requires WebGL).

§ Visibility from observer

Set your observer location to see the next 7 days of passes ≥ 10°. The values pass through the URL so the page stays shareable.

No JS? Fill the form by hand. The geolocation button needs JavaScript.